Regional Weather Roundup
Issued by NWS

Home | Current Version | Previous Version | Text Only | Print | Product List | Glossary Off
Versions: 1 2 3 4 5 6 7 8 9 10 11 12 13 14 15 16 17 18 19 20 21 22 23 24 25 26 27 28 29 30 31 32 33 34 35 36 37 38 39 40 41 42 43 44 45 46 47 48 49 50

136
ASUS43 KLMK 290402
RWRKY
KENTUCKY REGIONAL WEATHER ROUNDUP
NATIONAL WEATHER SERVICE LOUISVILLE KY
1200 AM EDT THU JUN 29 2017

NOTE "FAIR" INDICATES FEW OR NO CLOUDS BELOW 12,000 FEET
WITH NO SIGNIFICANT WEATHER AND/OR OBSTRUCTIONS TO VISIBILITY.

KYZ001>023-026-027-061>063-070>075-290500-
WESTERN AND SOUTH CENTRAL KENTUCKY

CITY           SKY/WX    TMP DP  RH WIND       PRES   REMARKS
PADUCAH        PTCLDY    73  64  73 SE6       29.97S
HENDERSON      PTCLDY    73  64  73 S7        29.99S
OWENSBORO      CLEAR     72  62  71 SE7       30.01R
HOPKINSVILLE   PTCLDY    76  63  63 S5        30.02R
BOWLING GREEN  CLEAR     74  61  63 S6        30.04R
GLASGOW        NOT AVBL
$$

KYZ024-025-028>034-038-045-046-053-290500-
NORTH CENTRAL KENTUCKY

CITY           SKY/WX    TMP DP  RH WIND       PRES   REMARKS
LOUISVILLE/SDF MOCLDY    74  56  53 S9        30.03R
LOUISVILLE/LOU PTCLDY    74  57  55 S3        30.04R
FORT KNOX      CLEAR     70  56  62 S7        30.03R
$$

KYZ035>037-039>044-047>052-055>060-089>105-290500-
NORTHEAST KENTUCKY

CITY           SKY/WX    TMP DP  RH WIND       PRES   REMARKS
LEXINGTON      CLOUDY    69  55  60 S6        30.08R
COVINGTON      CLOUDY    65  58  78 S7        30.04R
FRANKFORT      CLOUDY    65  55  70 S3        30.05R
$$

KYZ054-064>069-076>088-106>120-290500-
SOUTHEAST KENTUCKY

CITY           SKY/WX    TMP DP  RH WIND       PRES   REMARKS
JACKSON        CLOUDY    68  57  68 CALM      30.10S
LONDON         CLOUDY    66  54  65 CALM      30.11R
SOMERSET       CLOUDY    64  57  77 CALM      30.10S
MIDDLESBORO    CLEAR     62  59  89 CALM      30.14R
MONTICELLO     CLEAR     61  59  93 NW9       30.11R
$$





USA.gov is the U.S. government's official web portal to all federal, state and local government web resources and services.